Regional Weather Roundup
Issued by NWS Lake Charles, LA

Home | Current Version | Previous Version | Text Only | Print | Product List | Glossary On
Versions: 1 2 3 4 5 6 7 8 9 10 11 12 13 14 15 16 17 18 19 20 21 22 23 24 25 26 27 28 29 30 31 32 33 34 35 36 37 38 39 40 41 42 43 44 45 46 47 48
000
ASUS44 KLCH 132310
RWRLCH
RWRLCH
REGIONAL WEATHER ROUNDUP
NATIONAL WEATHER SERVICE LAKE CHARLES LA
600 PM CDT SUN JUL 13 2014

Note: "fair" indicates few or no clouds below 12,000 feet with no
significant weather and/or obstructions to visibility.


ACROSS SOUTHEAST TEXAS

CITY           SKY/WX    TMP DP  RH WIND       PRES   REMARKS
BEAUMONT       PTSUNNY   90  74  59 W7        30.01R
BEAUMONT CITY    N/A     87  74  65 SW3       30.03R
ORANGE         TSTM      75  69  80 N16G28    30.10R
JASPER         LGT RAIN  73  70  90 CALM      30.03F
$$

ACROSS CENTRAL LOUISIANA

CITY           SKY/WX    TMP DP  RH WIND       PRES   REMARKS
LEESVILLE      CLOUDY    82  73  74 CALM      30.00F
FULLERTON        N/A     84  74  71 CALM      29.98S
ALEXANDRIA INT CLOUDY    86  73  65 N5        29.97F
ESLER FIELD    CLOUDY    89  75  63 SE6       29.99F
DERIDDER         N/A     76  71  86 CALM      30.02F
OAKDALE        CLOUDY    88  73  62 CALM      29.99S
OPELOUSAS        N/A     80  72  75 SE3       30.01S
$$

ACROSS SOUTHWEST AND SOUTH CENTRAL LOUISIANA

CITY           SKY/WX    TMP DP  RH WIND       PRES   REMARKS
SULPHUR        TSTM      73  71  96 W15       30.05R VSB 3/4
LAKE CHARLES   CLOUDY    77  69  76 W8        30.02R THUNDER
CHENNAULT INT  TSTM      75  73  94 W15G23    30.03R
CAMERON PHI    CLEAR     86  75  70 SW10      30.02R
DEQUINCY       LGT RAIN  74  72  95 S8        30.03F
JENNINGS         N/A     83  73  69 S3        30.00S
LAFAYETTE      CLOUDY    83  71  67 S6        30.02R
NEW IBERIA     CLOUDY    82  73  74 S5        30.03R
ABBEVILLE        N/A     82  72  71 SE3       30.02R
PATTERSON      CLOUDY    82  75  78 CALM      30.06R
SALT POINT       N/A     87  77  72 SW7       30.02R
$$

SELECTED SITES ACROSS THE REGION

CITY           SKY/WX    TMP DP  RH WIND       PRES   REMARKS
HOUSTON BUSH   PTSUNNY   89  70  53 S13G21    29.99F
HOUSTON HOBBY  PTSUNNY   80  72  76 W6        30.00F
GALVESTON      SUNNY     88  77  69 S14       30.01F HX 100
COLLEGE STAT   MOSUNNY   94  66  39 S9        30.00F
CONROE         MOSUNNY   92  73  53 CALM      30.00F HX 100
HUNTSVILLE     MOSUNNY   92  72  51 W6        30.01F
LUFKIN         CLOUDY    94  72  48 S6        29.98F HX 102
SHREVEPORT     PTSUNNY   95  67  39 SW6       29.96F
MONROE         SUNNY     93  74  53 VRB5      29.99F HX 103
NATCHEZ MS     PTSUNNY   84  73  70 S13       30.03R
BATON ROUGE    MOSUNNY   88  73  61 CALM      30.02R
N.O. INTL ARPT MOSUNNY   88  71  57 CALM      30.03R
SLIDELL        MOSUNNY   80  72  76 NW10      30.05R
$$

MARINE REPORTS

STATION/POSITION TIME  TEMP    WIND        PRES    VSBY  WAVE
                       AIR SEA DIR/SP/G                  HT/PER
                 (UTC) (F)     (DEG/KT/KT) (MB)    (MI)  (FT/S)
BUOY 30 S HIGH I 2300   85 88  190/  8/ 10 1016.1F
SEA RIM ST PARK  2200   86     200/ 11/ 13 1016.8F
PORT ARTHUR      2300      89  210/  8/ 11 1016.3F
SABINE PASS N    2300   87 88  230/  6/ 13 1016.5R
TEXAS POINT      2300   86 88  210/  9/ 12 1016.6R
CALCASIEU PASS   2300   85 88  220/ 12/ 13 1017.4R
LK CHARLES BEACH 2300   79 87              1016.9R
MARSH ISLAND     2200   85     240/  7/ 12   N/A
FRESH WATER LOCK 2300   85 88  200/  8/ 11 1016.0F
AMERADA PASS     2300   83 87  220/  2/  4 1016.6S
$$



USA.gov is the U.S. government's official web portal to all federal, state and local government web resources and services.